TVF78UN LFPO-LTFM

Flight info

Callsign TVF78UN
Flight time 2h 51m
Altitude 39000
Route BUBLI DCT LUVAL DCT MIRGU DCT BEGAR DCT TRA DCT GAMSA DCT UMVEG DCT BERTA DCT OKLOP DCT ETIDA T390 RILEX
Aircraft B738/M-SDFGHIJ1RWXY/LB1

Departure

Time 2026-05-05 12:57
Airport Paris-Orly Airport (LFPO)

Arrival

Time 2026-05-05 15:48
Airport İstanbul Airport (LTFM)
Time Latitude Longitude Altitude Speed Heading
2026-05-05 12:31 48.72730 2.36838 282 ft 0 kts 22°
2026-05-05 12:47 48.72720 2.36832 286 ft 4 kts 22°
2026-05-05 12:47 48.72695 2.36816 282 ft 4 kts 22°
2026-05-05 12:47 48.72674 2.36803 287 ft 3 kts 22°
2026-05-05 12:47 48.72649 2.36793 287 ft 4 kts 350°
2026-05-05 12:48 48.72631 2.36808 287 ft 4 kts 282°
2026-05-05 12:48 48.72635 2.36843 285 ft 3 kts 251°
2026-05-05 12:48 48.72636 2.36848 282 ft 1 kts 251°
2026-05-05 12:50 48.72633 2.36837 282 ft 4 kts 251°
2026-05-05 12:51 48.72614 2.36750 283 ft 13 kts 251°
2026-05-05 12:51 48.72577 2.36603 283 ft 15 kts 252°
2026-05-05 12:51 48.72547 2.36452 286 ft 15 kts 255°
2026-05-05 12:51 48.72522 2.36309 282 ft 14 kts 254°
2026-05-05 12:52 48.72495 2.36168 283 ft 13 kts 254°
2026-05-05 12:52 48.72473 2.36034 285 ft 13 kts 260°
2026-05-05 12:52 48.72474 2.35902 282 ft 13 kts 275°
2026-05-05 12:52 48.72478 2.35771 283 ft 12 kts 265°
2026-05-05 12:53 48.72457 2.35659 282 ft 9 kts 243°
2026-05-05 12:53 48.72403 2.35625 285 ft 9 kts 174°
2026-05-05 12:53 48.72340 2.35635 282 ft 10 kts 185°
2026-05-05 12:53 48.72265 2.35606 283 ft 14 kts 189°
2026-05-05 12:54 48.72083 2.35670 283 ft 12 kts 152°
2026-05-05 12:54 48.72036 2.35739 281 ft 5 kts 125°
2026-05-05 12:54 48.72033 2.35745 281 ft 0 kts 124°
2026-05-05 12:56 48.72030 2.35752 281 ft 2 kts 123°
2026-05-05 12:56 48.72014 2.35793 284 ft 7 kts 120°
2026-05-05 12:56 48.71980 2.35887 287 ft 11 kts 118°
2026-05-05 12:56 48.71967 2.36004 282 ft 17 kts 80°
2026-05-05 12:57 48.72064 2.36524 283 ft 86 kts 75°
2026-05-05 12:57 48.72280 2.37697 284 ft 143 kts 74°
2026-05-05 12:57 48.72550 2.39259 689 ft 157 kts 72°
2026-05-05 12:57 48.72848 2.40838 1505 ft 155 kts 71°
2026-05-05 12:58 48.73143 2.42415 2234 ft 155 kts 70°
2026-05-05 12:58 48.73438 2.43991 2953 ft 156 kts 71°
2026-05-05 12:58 48.73737 2.45581 3616 ft 162 kts 72°
2026-05-05 12:58 48.74027 2.47373 3926 ft 189 kts 82°
2026-05-05 12:59 48.74095 2.49485 4158 ft 211 kts 85°
2026-05-05 12:59 48.74176 2.51807 4552 ft 230 kts 85°
2026-05-05 12:59 48.74266 2.54267 5310 ft 235 kts 86°
2026-05-05 13:00 48.74634 2.59548 6551 ft 260 kts 82°
2026-05-05 13:00 48.74866 2.62285 7448 ft 266 kts 82°
2026-05-05 13:01 48.75414 2.70799 9913 ft 276 kts 87°
2026-05-05 13:01 48.75460 2.73775 10301 ft 293 kts 88°
2026-05-05 13:01 48.75500 2.76985 10499 ft 315 kts 88°
2026-05-05 13:01 48.75542 2.80366 11004 ft 325 kts 88°
2026-05-05 13:02 48.75590 2.83812 11694 ft 329 kts 89°
2026-05-05 13:02 48.75642 2.87298 12421 ft 333 kts 89°
2026-05-05 13:02 48.75697 2.90816 13182 ft 336 kts 89°
2026-05-05 13:02 48.75754 2.94379 13901 ft 340 kts 89°
2026-05-05 13:03 48.75813 2.97985 14597 ft 344 kts 89°
2026-05-05 13:03 48.75871 3.01570 15279 ft 347 kts 89°
2026-05-05 13:03 48.75931 3.05250 15961 ft 352 kts 89°
2026-05-05 13:03 48.75991 3.08984 16593 ft 358 kts 90°
2026-05-05 13:04 48.76050 3.12781 17276 ft 362 kts 90°
2026-05-05 13:04 48.76110 3.16606 17994 ft 365 kts 90°
2026-05-05 13:04 48.76169 3.20517 18633 ft 368 kts 90°
2026-05-05 13:04 48.76226 3.24358 19251 ft 371 kts 90°
2026-05-05 13:05 48.76283 3.28295 19878 ft 375 kts 90°
2026-05-05 13:05 48.76339 3.32262 20498 ft 379 kts 90°
2026-05-05 13:05 48.76394 3.36270 21114 ft 382 kts 90°
2026-05-05 13:05 48.76448 3.40318 21715 ft 386 kts 90°
2026-05-05 13:06 48.76502 3.44404 22294 ft 389 kts 90°
2026-05-05 13:06 48.76554 3.48523 22883 ft 393 kts 90°
2026-05-05 13:06 48.76606 3.52691 23372 ft 398 kts 91°
2026-05-05 13:06 48.76656 3.56916 23782 ft 403 kts 91°
2026-05-05 13:07 48.76706 3.61170 24282 ft 405 kts 91°
2026-05-05 13:07 48.76754 3.65447 24785 ft 407 kts 91°
2026-05-05 13:07 48.76801 3.69749 25244 ft 410 kts 91°
2026-05-05 13:07 48.76847 3.74087 25676 ft 413 kts 91°
2026-05-05 13:08 48.76891 3.78449 26094 ft 416 kts 91°
2026-05-05 13:08 48.76934 3.82847 26510 ft 418 kts 91°
2026-05-05 13:08 48.76976 3.87269 26917 ft 421 kts 91°
2026-05-05 13:08 48.77016 3.91721 27325 ft 424 kts 91°
2026-05-05 13:09 48.77055 3.96196 27718 ft 426 kts 91°
2026-05-05 13:09 48.77094 4.00704 28097 ft 429 kts 91°
2026-05-05 13:09 48.77130 4.05237 28477 ft 431 kts 91°
2026-05-05 13:09 48.77125 4.09793 28832 ft 433 kts 96°
2026-05-05 13:10 48.76612 4.14271 29160 ft 432 kts 109°
2026-05-05 13:10 48.75513 4.18494 29532 ft 431 kts 119°
2026-05-05 13:10 48.73923 4.22329 29875 ft 431 kts 127°
2026-05-05 13:10 48.72172 4.26014 30166 ft 432 kts 128°
2026-05-05 13:11 48.70394 4.29699 30455 ft 434 kts 128°
2026-05-05 13:11 48.68612 4.33395 30772 ft 435 kts 128°
2026-05-05 13:11 48.66836 4.37102 31090 ft 435 kts 127°
2026-05-05 13:11 48.65074 4.40805 31531 ft 432 kts 127°
2026-05-05 13:12 48.63329 4.44488 31983 ft 430 kts 127°
2026-05-05 13:12 48.61596 4.48151 32386 ft 428 kts 127°
2026-05-05 13:12 48.59866 4.51806 32747 ft 427 kts 127°
2026-05-05 13:12 48.58137 4.55457 33143 ft 426 kts 127°
2026-05-05 13:13 48.56413 4.59091 33555 ft 424 kts 127°
2026-05-05 13:13 48.54696 4.62706 33952 ft 423 kts 127°
2026-05-05 13:13 48.53004 4.66263 34206 ft 424 kts 127°
2026-05-05 13:13 48.51276 4.69891 34403 ft 427 kts 127°
2026-05-05 13:14 48.49538 4.73531 34632 ft 428 kts 127°
2026-05-05 13:14 48.47798 4.77174 34920 ft 429 kts 128°
2026-05-05 13:14 48.46053 4.80822 35149 ft 430 kts 128°
2026-05-05 13:14 48.44297 4.84487 35363 ft 432 kts 128°
2026-05-05 13:15 48.42539 4.88153 35611 ft 432 kts 128°
2026-05-05 13:15 48.40781 4.91815 35838 ft 432 kts 128°
2026-05-05 13:15 48.39018 4.95481 36018 ft 433 kts 128°
2026-05-05 13:15 48.37245 4.99162 36208 ft 434 kts 128°
2026-05-05 13:16 48.35474 5.02838 36427 ft 435 kts 128°
2026-05-05 13:16 48.33836 5.06674 36612 ft 439 kts 119°
2026-05-05 13:16 48.32659 5.10927 36790 ft 443 kts 109°
2026-05-05 13:16 48.31898 5.15433 37017 ft 446 kts 106°
2026-05-05 13:17 48.31202 5.19987 37137 ft 449 kts 106°
2026-05-05 13:17 48.30511 5.24563 37279 ft 450 kts 106°
2026-05-05 13:17 48.29812 5.29148 37509 ft 450 kts 106°
2026-05-05 13:17 48.29103 5.33721 37724 ft 450 kts 106°
2026-05-05 13:18 48.28382 5.38301 37879 ft 451 kts 107°
2026-05-05 13:18 48.27653 5.42883 38053 ft 452 kts 107°
2026-05-05 13:18 48.26916 5.47474 38248 ft 452 kts 107°
2026-05-05 13:18 48.26176 5.52064 38432 ft 453 kts 107°
2026-05-05 13:19 48.25432 5.56658 38589 ft 454 kts 107°
2026-05-05 13:19 48.24686 5.61259 38722 ft 454 kts 107°
2026-05-05 13:19 48.23936 5.65864 38834 ft 455 kts 107°
2026-05-05 13:19 48.23184 5.70473 38838 ft 457 kts 107°
2026-05-05 13:20 48.21658 5.79788 38849 ft 462 kts 107°
2026-05-05 13:20 48.20120 5.89128 38847 ft 467 kts 107°
2026-05-05 13:21 48.18542 5.98666 38836 ft 470 kts 107°
2026-05-05 13:21 48.16973 6.08101 38835 ft 471 kts 108°
2026-05-05 13:22 48.15381 6.17616 38837 ft 471 kts 108°
2026-05-05 13:22 48.13780 6.27128 38853 ft 472 kts 108°
2026-05-05 13:23 48.12170 6.36645 38853 ft 471 kts 108°
2026-05-05 13:23 48.10556 6.46132 38849 ft 469 kts 108°
2026-05-05 13:24 48.08944 6.55557 38867 ft 467 kts 108°
2026-05-05 13:24 48.07324 6.64968 38856 ft 468 kts 108°
2026-05-05 13:25 48.05699 6.74365 38859 ft 466 kts 108°
2026-05-05 13:25 48.04073 6.83718 38847 ft 464 kts 108°
2026-05-05 13:26 48.02445 6.93034 38859 ft 463 kts 109°
2026-05-05 13:26 48.00814 7.02319 38865 ft 462 kts 109°
2026-05-05 13:27 47.99177 7.11585 38870 ft 460 kts 109°
2026-05-05 13:27 47.97550 7.20751 38866 ft 460 kts 109°
2026-05-05 13:28 47.95902 7.29984 38850 ft 461 kts 109°
2026-05-05 13:28 47.94245 7.39225 38860 ft 462 kts 109°
2026-05-05 13:29 47.92575 7.48496 38863 ft 463 kts 109°
2026-05-05 13:29 47.90892 7.57783 38869 ft 464 kts 110°
2026-05-05 13:30 47.88814 7.66863 38861 ft 462 kts 115°
2026-05-05 13:30 47.86481 7.75796 38872 ft 464 kts 114°
2026-05-05 13:31 47.84363 7.84812 38857 ft 466 kts 112°
2026-05-05 13:31 47.82280 7.94031 38867 ft 466 kts 112°
2026-05-05 13:32 47.80183 8.03149 38859 ft 466 kts 113°
2026-05-05 13:32 47.78052 8.12253 38868 ft 466 kts 114°
2026-05-05 13:33 47.76252 8.19788 38853 ft 465 kts 114°
2026-05-05 13:33 47.74106 8.28866 38857 ft 465 kts 113°
2026-05-05 13:34 47.71970 8.37920 38860 ft 465 kts 113°
2026-05-05 13:34 47.69819 8.46959 38854 ft 464 kts 114°
2026-05-05 13:35 47.67650 8.56017 38863 ft 465 kts 114°
2026-05-05 13:35 47.65483 8.65035 38872 ft 464 kts 114°
2026-05-05 13:36 47.63307 8.74047 38870 ft 465 kts 114°
2026-05-05 13:36 47.61123 8.83054 38849 ft 464 kts 114°
2026-05-05 13:37 47.58935 8.92040 38855 ft 464 kts 114°
2026-05-05 13:37 47.56741 9.01018 38860 ft 464 kts 114°
2026-05-05 13:38 47.54539 9.09992 38857 ft 464 kts 114°
2026-05-05 13:38 47.52331 9.18955 38855 ft 464 kts 114°
2026-05-05 13:39 47.50114 9.27916 38847 ft 464 kts 114°
2026-05-05 13:39 47.47888 9.36882 38858 ft 465 kts 114°
2026-05-05 13:40 47.45651 9.45854 38857 ft 466 kts 114°
2026-05-05 13:40 47.43404 9.54840 38858 ft 467 kts 114°
2026-05-05 13:41 47.41171 9.63841 38848 ft 469 kts 111°
2026-05-05 13:41 47.40017 9.73374 38863 ft 474 kts 99°
2026-05-05 13:42 47.39329 9.83080 38858 ft 476 kts 99°
2026-05-05 13:42 47.38618 9.92785 38851 ft 476 kts 99°
2026-05-05 13:43 47.37857 10.02498 38819 ft 477 kts 100°
2026-05-05 13:43 47.37070 10.12212 38832 ft 477 kts 100°
2026-05-05 13:44 47.36271 10.21925 38830 ft 477 kts 100°
2026-05-05 13:44 47.35466 10.31642 38854 ft 477 kts 100°
2026-05-05 13:45 47.34657 10.41311 38822 ft 478 kts 100°
2026-05-05 13:45 47.33836 10.51042 38814 ft 478 kts 100°
2026-05-05 13:46 47.33002 10.60817 38819 ft 478 kts 100°
2026-05-05 13:46 47.32173 10.70436 38820 ft 475 kts 100°
2026-05-05 13:47 47.31331 10.80097 38822 ft 476 kts 100°
2026-05-05 13:47 47.30482 10.89744 38835 ft 474 kts 100°
2026-05-05 13:48 47.29625 10.99391 38831 ft 476 kts 100°
2026-05-05 13:48 47.28757 11.09073 38828 ft 478 kts 101°
2026-05-05 13:49 47.27879 11.18764 38842 ft 478 kts 100°
2026-05-05 13:49 47.26989 11.28493 38855 ft 480 kts 100°
2026-05-05 13:50 47.26090 11.38243 38852 ft 481 kts 100°
2026-05-05 13:50 47.25180 11.48004 38859 ft 481 kts 100°
2026-05-05 13:51 47.24262 11.57765 38856 ft 481 kts 100°
2026-05-05 13:51 47.23336 11.67525 38842 ft 482 kts 100°
2026-05-05 13:52 47.22403 11.77271 38854 ft 481 kts 100°
2026-05-05 13:52 47.21459 11.87011 38849 ft 480 kts 101°
2026-05-05 13:53 47.19601 11.96339 38876 ft 475 kts 114°
2026-05-05 13:53 47.17143 12.05338 38865 ft 474 kts 115°
2026-05-05 13:54 47.14684 12.14325 38879 ft 474 kts 115°
2026-05-05 13:54 47.12274 12.23268 38886 ft 474 kts 114°
2026-05-05 13:55 47.09857 12.32286 38897 ft 474 kts 114°
2026-05-05 13:55 47.07438 12.41294 38882 ft 475 kts 114°
2026-05-05 13:56 47.05007 12.50303 38890 ft 475 kts 114°
2026-05-05 13:56 47.02570 12.59297 38881 ft 475 kts 115°
2026-05-05 13:57 47.00129 12.68269 38910 ft 473 kts 115°
2026-05-05 13:57 46.97686 12.77216 38888 ft 472 kts 115°
2026-05-05 13:58 46.95247 12.86116 38902 ft 470 kts 115°
2026-05-05 13:58 46.92806 12.94985 38916 ft 470 kts 115°
2026-05-05 13:59 46.89127 13.08292 38915 ft 471 kts 115°
2026-05-05 14:00 46.85854 13.20075 38941 ft 470 kts 115°
2026-05-05 14:00 46.82968 13.30412 38952 ft 471 kts 115°
2026-05-05 14:01 46.80484 13.39274 38941 ft 473 kts 115°
2026-05-05 14:01 46.77980 13.48173 39095 ft 473 kts 115°
2026-05-05 14:02 46.76732 13.52601 39308 ft 471 kts 115°
2026-05-05 14:02 46.75484 13.57020 39375 ft 473 kts 115°
2026-05-05 14:02 46.72959 13.65926 39503 ft 477 kts 115°
2026-05-05 14:03 46.71711 13.70319 39680 ft 475 kts 115°
2026-05-05 14:03 46.70445 13.74767 39887 ft 474 kts 115°
2026-05-05 14:03 46.69181 13.79203 39999 ft 474 kts 115°
2026-05-05 14:03 46.67915 13.83636 40073 ft 475 kts 115°
2026-05-05 14:04 46.65369 13.92521 40317 ft 475 kts 115°
2026-05-05 14:04 46.64096 13.96951 40471 ft 474 kts 115°
2026-05-05 14:04 46.62823 14.01374 40594 ft 474 kts 115°
2026-05-05 14:05 46.60268 14.10229 40841 ft 474 kts 115°
2026-05-05 14:05 46.57707 14.19071 40953 ft 476 kts 115°
2026-05-05 14:06 46.55136 14.27920 40954 ft 476 kts 115°
2026-05-05 14:06 46.52549 14.36789 40968 ft 477 kts 115°
2026-05-05 14:07 46.49956 14.45647 40962 ft 477 kts 115°
2026-05-05 14:07 46.47354 14.54511 40953 ft 478 kts 115°
2026-05-05 14:08 46.44759 14.63314 40950 ft 478 kts 115°
2026-05-05 14:08 46.42131 14.72165 40935 ft 478 kts 116°
2026-05-05 14:09 46.39938 14.79520 40973 ft 479 kts 115°
2026-05-05 14:09 46.37035 14.89227 40950 ft 481 kts 116°
2026-05-05 14:10 46.34372 14.98104 40945 ft 481 kts 116°
2026-05-05 14:10 46.31702 15.06979 40941 ft 480 kts 115°
2026-05-05 14:11 46.29030 15.15829 40950 ft 480 kts 115°
2026-05-05 14:11 46.26352 15.24665 40946 ft 479 kts 115°
2026-05-05 14:12 46.23673 15.33475 40950 ft 478 kts 116°
2026-05-05 14:12 46.20991 15.42260 40956 ft 478 kts 115°
2026-05-05 14:13 46.18306 15.51027 40963 ft 478 kts 115°
2026-05-05 14:13 46.15616 15.59779 40969 ft 477 kts 116°
2026-05-05 14:14 46.12937 15.68467 40975 ft 477 kts 116°
2026-05-05 14:14 46.10235 15.77197 40971 ft 477 kts 116°
2026-05-05 14:15 46.07528 15.85915 40970 ft 477 kts 116°
2026-05-05 14:15 46.04814 15.94626 40968 ft 477 kts 116°
2026-05-05 14:16 46.02093 16.03328 40968 ft 477 kts 116°
2026-05-05 14:16 45.99367 16.12018 40975 ft 477 kts 116°
2026-05-05 14:17 45.96631 16.20711 40980 ft 477 kts 116°
2026-05-05 14:17 45.93890 16.29389 40980 ft 477 kts 116°
2026-05-05 14:18 45.91141 16.38063 40977 ft 477 kts 116°
2026-05-05 14:18 45.88382 16.46738 40967 ft 478 kts 116°
2026-05-05 14:19 45.85617 16.55402 40969 ft 478 kts 116°
2026-05-05 14:19 45.82843 16.64068 40962 ft 478 kts 116°
2026-05-05 14:20 45.80063 16.72723 40966 ft 478 kts 116°
2026-05-05 14:20 45.77275 16.81374 40960 ft 478 kts 116°
2026-05-05 14:21 45.74480 16.90016 40956 ft 478 kts 116°
2026-05-05 14:21 45.72153 16.97192 40955 ft 478 kts 116°
2026-05-05 14:22 45.69344 17.05824 40953 ft 478 kts 116°
2026-05-05 14:22 45.66531 17.14442 40942 ft 478 kts 116°
2026-05-05 14:23 45.63710 17.23056 40952 ft 478 kts 116°
2026-05-05 14:23 45.60883 17.31659 40951 ft 479 kts 116°
2026-05-05 14:24 45.58045 17.40267 40953 ft 479 kts 116°
2026-05-05 14:24 45.55199 17.48872 40943 ft 480 kts 116°
2026-05-05 14:25 45.52345 17.57472 40944 ft 480 kts 116°
2026-05-05 14:25 45.49483 17.66068 40940 ft 480 kts 116°
2026-05-05 14:26 45.46616 17.74653 40934 ft 480 kts 116°
2026-05-05 14:26 45.43743 17.83225 40929 ft 480 kts 116°
2026-05-05 14:27 45.40864 17.91790 40931 ft 480 kts 116°
2026-05-05 14:27 45.37978 18.00346 40928 ft 480 kts 116°
2026-05-05 14:28 45.35087 18.08887 40928 ft 480 kts 116°
2026-05-05 14:28 45.32188 18.17427 40927 ft 479 kts 116°
2026-05-05 14:29 45.29304 18.25897 40927 ft 479 kts 116°
2026-05-05 14:29 45.26396 18.34408 40926 ft 479 kts 116°
2026-05-05 14:30 45.23485 18.42902 40923 ft 479 kts 116°
2026-05-05 14:30 45.20570 18.51378 40930 ft 478 kts 116°
2026-05-05 14:31 45.17654 18.59833 40927 ft 477 kts 116°
2026-05-05 14:31 45.14731 18.68279 40925 ft 477 kts 116°
2026-05-05 14:32 45.11808 18.76700 40926 ft 476 kts 116°
2026-05-05 14:32 45.08879 18.85111 40926 ft 476 kts 116°
2026-05-05 14:33 45.05946 18.93510 40929 ft 476 kts 117°
2026-05-05 14:33 45.03008 19.01894 40928 ft 476 kts 117°
2026-05-05 14:34 45.00065 19.10267 40931 ft 476 kts 117°
2026-05-05 14:34 44.97117 19.18629 40932 ft 475 kts 117°
2026-05-05 14:35 44.94183 19.26925 40929 ft 475 kts 117°
2026-05-05 14:35 44.91227 19.35259 40929 ft 475 kts 117°
2026-05-05 14:36 44.88259 19.43599 40922 ft 475 kts 117°
2026-05-05 14:36 44.85288 19.51922 40930 ft 476 kts 117°
2026-05-05 14:37 44.82308 19.60244 40934 ft 476 kts 117°
2026-05-05 14:37 44.79320 19.68565 40938 ft 476 kts 117°
2026-05-05 14:38 44.76323 19.76886 40944 ft 477 kts 117°
2026-05-05 14:38 44.73319 19.85200 40939 ft 477 kts 117°
2026-05-05 14:39 44.70306 19.93513 40951 ft 477 kts 117°
2026-05-05 14:39 44.67288 20.01814 40954 ft 477 kts 117°
2026-05-05 14:40 44.64263 20.10109 40961 ft 477 kts 117°
2026-05-05 14:40 44.61236 20.18387 40963 ft 477 kts 117°
2026-05-05 14:41 44.58204 20.26651 40964 ft 476 kts 117°
2026-05-05 14:41 44.55165 20.34910 40967 ft 476 kts 117°
2026-05-05 14:42 44.52123 20.43152 40971 ft 476 kts 117°
2026-05-05 14:42 44.49074 20.51390 40954 ft 476 kts 117°
2026-05-05 14:43 44.46042 20.59557 40963 ft 476 kts 117°
2026-05-05 14:43 44.42983 20.67772 40965 ft 476 kts 117°
2026-05-05 14:44 44.39922 20.75969 40964 ft 476 kts 117°
2026-05-05 14:44 44.36853 20.84163 40961 ft 476 kts 117°
2026-05-05 14:45 44.33778 20.92348 40963 ft 476 kts 117°
2026-05-05 14:45 44.30696 21.00528 40973 ft 476 kts 117°
2026-05-05 14:46 44.27604 21.08712 40954 ft 477 kts 117°
2026-05-05 14:46 44.24507 21.16886 40967 ft 476 kts 117°
2026-05-05 14:47 44.21407 21.25045 40962 ft 476 kts 117°
2026-05-05 14:47 44.18295 21.33195 40964 ft 476 kts 118°
2026-05-05 14:48 44.14879 21.41105 40972 ft 477 kts 122°
2026-05-05 14:48 44.11296 21.48876 40967 ft 477 kts 122°
2026-05-05 14:49 44.07724 21.56652 40965 ft 477 kts 122°
2026-05-05 14:49 44.04178 21.64446 40979 ft 477 kts 122°
2026-05-05 14:50 44.00635 21.72244 40976 ft 478 kts 122°
2026-05-05 14:50 43.97081 21.80047 40974 ft 478 kts 122°
2026-05-05 14:51 43.93546 21.87784 40992 ft 478 kts 122°
2026-05-05 14:51 43.89977 21.95572 40977 ft 479 kts 122°
2026-05-05 14:52 43.86401 22.03355 40980 ft 478 kts 122°
2026-05-05 14:52 43.82822 22.11124 40976 ft 478 kts 122°
2026-05-05 14:53 43.79241 22.18876 40978 ft 478 kts 122°
2026-05-05 14:53 43.75657 22.26616 40982 ft 478 kts 122°
2026-05-05 14:54 43.72069 22.34346 40976 ft 477 kts 122°
2026-05-05 14:54 43.68491 22.42061 40982 ft 478 kts 120°
2026-05-05 14:55 43.65657 22.49376 40998 ft 477 kts 115°
2026-05-05 14:55 43.62723 22.57596 40989 ft 477 kts 115°
2026-05-05 14:56 43.59774 22.65799 40983 ft 477 kts 115°
2026-05-05 14:56 43.56782 22.73968 40993 ft 478 kts 116°
2026-05-05 14:57 43.53763 22.82125 40994 ft 478 kts 116°
2026-05-05 14:57 43.50735 22.90274 40993 ft 478 kts 116°
2026-05-05 14:58 43.47695 22.98439 40996 ft 478 kts 116°
2026-05-05 14:58 43.44656 23.06581 41006 ft 479 kts 116°
2026-05-05 14:59 43.41627 23.14673 40994 ft 479 kts 116°
2026-05-05 14:59 43.38576 23.22800 41000 ft 478 kts 116°
2026-05-05 15:00 43.36034 23.29553 41004 ft 478 kts 116°
2026-05-05 15:00 43.32480 23.38965 41009 ft 478 kts 116°
2026-05-05 15:01 43.29391 23.47123 41001 ft 478 kts 116°
2026-05-05 15:01 43.26341 23.55157 41014 ft 478 kts 116°
2026-05-05 15:02 43.23259 23.63249 41010 ft 478 kts 116°
2026-05-05 15:02 43.20173 23.71328 41023 ft 478 kts 116°
2026-05-05 15:03 43.17082 23.79398 41012 ft 479 kts 116°
2026-05-05 15:03 43.13983 23.87465 41026 ft 478 kts 116°
2026-05-05 15:04 43.10877 23.95530 41038 ft 479 kts 116°
2026-05-05 15:04 43.07765 24.03585 41025 ft 479 kts 116°
2026-05-05 15:05 43.03086 24.15655 41026 ft 479 kts 116°
2026-05-05 15:06 42.99957 24.23698 41042 ft 479 kts 116°
2026-05-05 15:06 42.96825 24.31728 41025 ft 479 kts 116°
2026-05-05 15:07 42.93685 24.39754 41027 ft 480 kts 116°
2026-05-05 15:07 42.90538 24.47775 41025 ft 479 kts 117°
2026-05-05 15:08 42.87390 24.55782 41026 ft 479 kts 117°
2026-05-05 15:08 42.84240 24.63769 41012 ft 478 kts 117°
2026-05-05 15:09 42.81084 24.71748 41021 ft 478 kts 117°
2026-05-05 15:09 42.77927 24.79712 41029 ft 478 kts 117°
2026-05-05 15:10 42.75297 24.86330 41034 ft 479 kts 117°
2026-05-05 15:10 42.72152 24.94227 41025 ft 479 kts 117°
2026-05-05 15:11 42.68946 25.02257 41020 ft 479 kts 117°
2026-05-05 15:11 42.65766 25.10199 41020 ft 478 kts 117°
2026-05-05 15:12 42.62585 25.18122 41023 ft 478 kts 117°
2026-05-05 15:12 42.59396 25.26041 41020 ft 479 kts 117°
2026-05-05 15:13 42.55675 25.35257 41013 ft 479 kts 117°
2026-05-05 15:13 42.52986 25.41897 41019 ft 480 kts 117°
2026-05-05 15:14 42.49766 25.49829 41008 ft 480 kts 117°
2026-05-05 15:14 42.46541 25.57752 41006 ft 481 kts 117°
2026-05-05 15:15 42.43307 25.65675 41017 ft 481 kts 117°
2026-05-05 15:15 42.40091 25.73534 41008 ft 480 kts 118°
2026-05-05 15:16 42.36851 25.81430 40997 ft 480 kts 117°
2026-05-05 15:16 42.33606 25.89317 41005 ft 480 kts 118°
2026-05-05 15:17 42.30358 25.97192 40944 ft 481 kts 118°
2026-05-05 15:17 42.28719 26.01160 40609 ft 484 kts 118°
2026-05-05 15:17 42.27077 26.05128 40155 ft 485 kts 118°
2026-05-05 15:17 42.25432 26.09096 39599 ft 483 kts 118°
2026-05-05 15:18 42.23794 26.13040 39033 ft 481 kts 118°
2026-05-05 15:18 42.22160 26.16967 38390 ft 479 kts 117°
2026-05-05 15:18 42.20535 26.20865 37732 ft 476 kts 117°
2026-05-05 15:18 42.18913 26.24753 37107 ft 473 kts 117°
2026-05-05 15:19 42.17307 26.28597 36644 ft 467 kts 117°
2026-05-05 15:19 42.15711 26.32416 36236 ft 471 kts 117°
2026-05-05 15:19 42.14089 26.36295 35811 ft 478 kts 117°
2026-05-05 15:19 42.12447 26.40220 35347 ft 483 kts 117°
2026-05-05 15:20 42.10796 26.44155 34881 ft 482 kts 116°
2026-05-05 15:20 42.09146 26.48080 34446 ft 481 kts 116°
2026-05-05 15:20 42.07501 26.51987 33955 ft 480 kts 116°
2026-05-05 15:20 42.05857 26.55889 33437 ft 478 kts 116°
2026-05-05 15:21 42.04220 26.59769 32956 ft 475 kts 116°
2026-05-05 15:21 42.02592 26.63623 32493 ft 474 kts 116°
2026-05-05 15:21 42.00954 26.67501 32041 ft 479 kts 116°
2026-05-05 15:21 41.99300 26.71414 31592 ft 484 kts 116°
2026-05-05 15:22 41.97632 26.75347 31159 ft 485 kts 116°
2026-05-05 15:22 41.95868 26.79177 30607 ft 481 kts 123°
2026-05-05 15:22 41.93802 26.82720 30022 ft 482 kts 126°
2026-05-05 15:22 41.91666 26.86201 29453 ft 483 kts 127°
2026-05-05 15:23 41.89517 26.89664 28891 ft 481 kts 127°
2026-05-05 15:23 41.87397 26.93089 28342 ft 475 kts 127°
2026-05-05 15:23 41.85303 26.96499 27798 ft 470 kts 126°
2026-05-05 15:23 41.83243 26.99878 27286 ft 466 kts 126°
2026-05-05 15:24 41.81210 27.03232 26779 ft 462 kts 126°
2026-05-05 15:24 41.79197 27.06560 26271 ft 458 kts 126°
2026-05-05 15:24 41.77202 27.09861 25780 ft 454 kts 126°
2026-05-05 15:24 41.75219 27.13140 25287 ft 451 kts 126°
2026-05-05 15:25 41.73252 27.16387 24796 ft 448 kts 126°
2026-05-05 15:25 41.71292 27.19619 24335 ft 446 kts 126°
2026-05-05 15:25 41.69343 27.22829 23876 ft 443 kts 126°
2026-05-05 15:25 41.67404 27.26017 23383 ft 441 kts 126°
2026-05-05 15:26 41.65476 27.29184 22847 ft 438 kts 126°
2026-05-05 15:26 41.63555 27.32335 22306 ft 436 kts 126°
2026-05-05 15:26 41.61645 27.35464 21780 ft 433 kts 126°
2026-05-05 15:26 41.59747 27.38572 21274 ft 430 kts 126°
2026-05-05 15:27 41.57884 27.41619 20770 ft 428 kts 126°
2026-05-05 15:27 41.56005 27.44689 20266 ft 426 kts 126°
2026-05-05 15:27 41.54137 27.47739 19799 ft 423 kts 126°
2026-05-05 15:27 41.52278 27.50770 19309 ft 421 kts 126°
2026-05-05 15:28 41.50431 27.53778 18836 ft 418 kts 126°
2026-05-05 15:28 41.48590 27.56773 18364 ft 416 kts 126°
2026-05-05 15:28 41.46762 27.59745 17837 ft 413 kts 126°
2026-05-05 15:28 41.44943 27.62700 17309 ft 411 kts 126°
2026-05-05 15:29 41.43136 27.65632 16785 ft 408 kts 126°
2026-05-05 15:29 41.41341 27.68541 16278 ft 405 kts 126°
2026-05-05 15:29 41.39560 27.71424 15777 ft 402 kts 126°
2026-05-05 15:29 41.37792 27.74286 15278 ft 398 kts 126°
2026-05-05 15:30 41.36037 27.77122 14795 ft 395 kts 125°
2026-05-05 15:30 41.34444 27.79694 14357 ft 392 kts 125°
2026-05-05 15:30 41.32694 27.82518 13852 ft 389 kts 125°
2026-05-05 15:30 41.30973 27.85294 13193 ft 391 kts 125°
2026-05-05 15:31 41.29245 27.88079 12540 ft 388 kts 126°
2026-05-05 15:31 41.27530 27.90839 11901 ft 386 kts 126°
2026-05-05 15:31 41.25827 27.93577 11284 ft 383 kts 126°
2026-05-05 15:31 41.24163 27.96245 10792 ft 366 kts 126°
2026-05-05 15:32 41.22572 27.98790 10342 ft 351 kts 126°
2026-05-05 15:32 41.21055 28.01217 10100 ft 332 kts 126°
2026-05-05 15:32 41.19613 28.03524 9832 ft 317 kts 125°
2026-05-05 15:32 41.18235 28.05730 9550 ft 305 kts 125°
2026-05-05 15:33 41.16899 28.07871 9297 ft 299 kts 125°
2026-05-05 15:33 41.15574 28.09995 9017 ft 301 kts 125°
2026-05-05 15:33 41.14226 28.12158 8685 ft 307 kts 126°
2026-05-05 15:33 41.12875 28.14322 8367 ft 308 kts 126°
2026-05-05 15:34 41.11510 28.16501 8031 ft 306 kts 126°
2026-05-05 15:34 41.10156 28.18660 7709 ft 304 kts 126°
2026-05-05 15:34 41.08806 28.20810 7392 ft 302 kts 126°
2026-05-05 15:34 41.07466 28.22944 7060 ft 300 kts 126°
2026-05-05 15:35 41.06134 28.25064 6740 ft 298 kts 127°
2026-05-05 15:35 41.04810 28.27169 6431 ft 296 kts 127°
2026-05-05 15:35 41.03497 28.29255 6153 ft 293 kts 127°
2026-05-05 15:35 41.02198 28.31319 5864 ft 290 kts 127°
2026-05-05 15:36 41.00913 28.33358 5584 ft 287 kts 127°
2026-05-05 15:36 40.99639 28.35378 5302 ft 284 kts 127°
2026-05-05 15:36 40.98380 28.37373 5077 ft 280 kts 127°
2026-05-05 15:36 40.97188 28.39344 4998 ft 268 kts 121°
2026-05-05 15:37 40.96261 28.41402 4985 ft 254 kts 116°
2026-05-05 15:37 40.95430 28.43417 4987 ft 248 kts 115°
2026-05-05 15:37 40.94608 28.45413 4994 ft 246 kts 115°
2026-05-05 15:37 40.93780 28.47393 4999 ft 246 kts 116°
2026-05-05 15:38 40.92943 28.49367 5009 ft 246 kts 115°
2026-05-05 15:38 40.92099 28.51334 4999 ft 246 kts 115°
2026-05-05 15:38 40.91251 28.53302 5002 ft 246 kts 115°
2026-05-05 15:38 40.90401 28.55268 5002 ft 246 kts 115°
2026-05-05 15:39 40.89571 28.57248 4998 ft 245 kts 109°
2026-05-05 15:39 40.89344 28.59384 5004 ft 231 kts 76°
2026-05-05 15:39 40.89748 28.61420 5000 ft 229 kts 66°
2026-05-05 15:39 40.90272 28.63396 5013 ft 225 kts 66°
2026-05-05 15:40 40.90771 28.65274 4995 ft 208 kts 66°
2026-05-05 15:40 40.91225 28.67004 4989 ft 191 kts 66°
2026-05-05 15:40 40.91674 28.68565 4974 ft 173 kts 53°
2026-05-05 15:40 40.92521 28.69566 5003 ft 164 kts 27°
2026-05-05 15:41 40.93615 28.70392 5047 ft 195 kts 26°
2026-05-05 15:41 40.94832 28.71287 5007 ft 201 kts 26°
2026-05-05 15:41 40.96056 28.72187 5004 ft 202 kts 26°
2026-05-05 15:41 40.97289 28.73091 4998 ft 202 kts 24°
2026-05-05 15:42 40.98623 28.73488 5009 ft 196 kts 355°
2026-05-05 15:42 40.99958 28.73384 4992 ft 189 kts 357°
2026-05-05 15:42 41.01257 28.73352 4990 ft 186 kts 358°
2026-05-05 15:42 41.02529 28.73325 4987 ft 181 kts 358°
2026-05-05 15:43 41.03826 28.73296 4766 ft 190 kts 358°
2026-05-05 15:43 41.05171 28.73265 4506 ft 197 kts 358°
2026-05-05 15:43 41.06551 28.73233 4231 ft 198 kts 358°
2026-05-05 15:43 41.07922 28.73202 3963 ft 195 kts 358°
2026-05-05 15:44 41.09228 28.73172 3704 ft 180 kts 358°
2026-05-05 15:44 41.10424 28.73144 3466 ft 170 kts 358°
2026-05-05 15:44 41.11597 28.73116 3250 ft 169 kts 359°
2026-05-05 15:44 41.12789 28.73088 3017 ft 173 kts 358°
2026-05-05 15:45 41.14002 28.73060 2782 ft 175 kts 359°
2026-05-05 15:45 41.15218 28.73032 2548 ft 175 kts 359°
2026-05-05 15:45 41.16430 28.73004 2296 ft 168 kts 359°
2026-05-05 15:45 41.17564 28.72977 2115 ft 163 kts 359°
2026-05-05 15:46 41.18691 28.72951 1872 ft 163 kts 359°
2026-05-05 15:46 41.19774 28.72926 1631 ft 148 kts 359°
2026-05-05 15:46 41.20757 28.72903 1442 ft 135 kts 359°
2026-05-05 15:46 41.21678 28.72882 1310 ft 130 kts 359°
2026-05-05 15:47 41.22598 28.72860 1098 ft 131 kts 359°
2026-05-05 15:47 41.23206 28.72847 962 ft 129 kts 359°
2026-05-05 15:47 41.24389 28.72816 746 ft 127 kts 358°
2026-05-05 15:47 41.25243 28.72792 581 ft 119 kts
2026-05-05 15:48 41.26053 28.72781 406 ft 114 kts
2026-05-05 15:48 41.26808 28.72765 332 ft 96 kts 358°
2026-05-05 15:48 41.27324 28.72753 330 ft 52 kts 359°
2026-05-05 15:48 41.27637 28.72745 333 ft 43 kts 359°
2026-05-05 15:49 41.27914 28.72754 333 ft 38 kts 11°
2026-05-05 15:49 41.28094 28.72863 333 ft 17 kts 36°
2026-05-05 15:49 41.28100 28.72956 332 ft 12 kts 169°
2026-05-05 15:49 41.28016 28.72962 333 ft 12 kts 179°
2026-05-05 15:50 41.27933 28.72964 333 ft 13 kts 179°
2026-05-05 15:50 41.27836 28.72967 330 ft 15 kts 179°
2026-05-05 15:50 41.27720 28.72970 331 ft 18 kts 178°
2026-05-05 15:50 41.27587 28.72974 330 ft 20 kts 180°
2026-05-05 15:51 41.27440 28.72976 333 ft 22 kts 179°
2026-05-05 15:51 41.27285 28.72979 332 ft 22 kts 179°
2026-05-05 15:51 41.27152 28.72983 333 ft 19 kts 179°
2026-05-05 15:51 41.27041 28.72987 333 ft 13 kts 178°
2026-05-05 15:52 41.26957 28.72989 329 ft 12 kts 179°
2026-05-05 15:52 41.26885 28.73006 333 ft 11 kts 143°
2026-05-05 15:52 41.26866 28.73103 331 ft 12 kts 91°
2026-05-05 15:52 41.26865 28.73216 333 ft 13 kts 90°
2026-05-05 15:53 41.26866 28.73334 331 ft 10 kts 87°
2026-05-05 15:53 41.26860 28.73426 333 ft 10 kts 121°
2026-05-05 15:53 41.26823 28.73441 332 ft 5 kts 179°
2026-05-05 15:53 41.26794 28.73441 329 ft 3 kts 179°
2026-05-05 15:54 41.26782 28.73442 333 ft 0 kts 179°